#timestamp,LO_Frequency,Hit,StdDev 
1678273215.8,286047001.0,N
1678273235.6,286047002.2,N
1678273255.5,286046999.8,N
1678273275.3,286047003.9,N
1678273295.2,286047002.2,N
1678273315.9,286047004.2,N
1678273335.7,286047003.5,N
1678273355.6,286047005.7,N
1678273375.4,286047003.4,N
1678273395.2,286047005.7,N
1678273415.1,286047005.3,N
1678273416.0,286047005.3,N
1678273435.8,286047007.5,N
1678273455.7,286047006.1,N
1678273475.5,286047004.5,N
1678273495.3,286047007.6,N
1678273515.2,286047006.4,N
1678273535.0,286047007.0,N
1678273535.9,286047007.0,N
1678273555.8,286047006.6,N
1678273575.6,286047004.6,N
1678273595.4,286047004.8,N
1678273615.3,286047005.3,N
1678273635.1,286047005.7,N
1678273655.8,286047005.3,N
1678273675.7,286047005.4,N
1678273695.5,286047004.8,N
1678273715.4,286047005.3,N
1678273735.2,286047005.2,N
1678273755.0,286047005.7,N
1678273755.9,286047005.7,Y
1678273775.8,286046998.2,P
1678273795.6,286047000.4,N
1678273815.4,286046999.8,N
1678273835.3,286047004.3,N
1678273855.1,286047000.1,N
1678273875.9,286047002.7,N
1678273895.7,286046999.9,N
1678273915.5,286047000.6,N
1678273935.4,286046998.5,N
1678273955.2,286046998.8,N
1678273975.0,286046999.9,N
1678274006.0,286047001.0,E
1678274015.9,286047000.9,N
1678274035.7,286047001.2,P
1678274055.6,286046998.8,P
1678274075.4,286046999.3,N
1678274095.2,286046999.1,N
1678274115.1,286046996.9,Y
1678274116.0,286046996.9,P
1678274135.8,286046999.2,N
1678274155.7,286046998.2,N
1678274175.5,286046998.8,N
1678274195.3,286046998.6,N
1678274215.2,286046996.8,Y
1678274235.0,286046998.9,P
1678274235.9,286046998.9,P
1678274255.8,286047001.0,P
1678274275.6,286047000.3,N
1678274295.4,286047002.7,N
1678274315.3,286047002.2,N
1678274335.1,286047001.9,N
1678274355.9,286047002.1,N
1678274375.7,286047002.2,N
1678274395.5,286047002.7,N
1678274415.4,286047002.7,N
1678274435.2,286047001.0,N
1678274455.0,286047001.0,N
1678274455.9,286047001.0,N
1678274475.8,286047001.9,N
1678274495.6,286047002.4,N
1678274515.4,286047002.7,N
1678274535.3,286047001.0,N
1678274555.1,286047002.6,N
1678274575.9,286047011.9,Y
1678274595.7,286046999.2,P
1678274615.5,286046999.0,N
1678274635.4,286046998.8,N
1678274655.2,286046999.4,N
1678274675.1,286046996.5,Y
1678274676.0,286046996.5,P
1678274695.8,286046999.0,N
1678274715.6,286047000.8,N
1678274735.5,286047001.0,N
1678274755.3,286046996.5,N
1678274775.1,286046997.0,N
1678274795.9,286046997.8,N
1678274815.7,286046999.2,N
1678274835.6,286046997.0,N
1678274855.4,286046999.5,N
1678274875.2,286046999.3,N
1678274895.1,286046997.1,N
1678274896.0,286046997.1,N
1678274915.8,286046997.3,N
1678274935.6,286046995.1,Y
1678274955.5,286046996.8,P
1678274975.3,286046998.8,N
1678274995.2,286046999.2,N
1678275015.9,286047000.9,N
1678275035.7,286046997.6,N
1678275055.6,286046997.3,N
1678275075.4,286046996.6,N
1678275095.3,286047001.2,N
1678275115.1,286046998.2,N
1678275116.0,286046998.2,N
1678275135.8,286046999.2,N
1678275155.7,286046998.5,N
1678275175.5,286046998.4,N
1678275195.3,286046998.2,N
1678275215.2,286047000.7,N
1678275235.0,286047000.4,N
1678275235.9,286047000.4,N
1678275255.8,286047000.5,N
1678275275.6,286046999.9,N
1678275295.4,286046998.7,N
1678275315.3,286046998.6,N
1678275335.1,286046999.5,N
1678275355.9,286046997.4,N
1678275375.7,286046997.3,N
1678275395.5,286046997.2,N
1678275415.4,286046997.5,N
1678275435.2,286046995.7,Y
1678275455.1,286046998.7,P
1678275456.0,286046998.7,P
1678275475.8,286046999.3,P
1678275495.6,286046999.1,Y
1678275515.5,286046998.4,P
1678275535.3,286047000.5,N
1678275555.1,286047000.0,N
1678275575.9,286047001.0,N
1678275595.7,286046998.8,N
1678275615.6,286046998.4,N
1678275635.4,286046997.0,Y
1678275655.2,286046997.4,P
1678275675.1,286046997.0,N
1678275676.0,286046997.0,N
1678275695.8,286046997.0,Y
1678275715.7,286047000.1,P
1678275735.5,286047002.3,N
1678275755.3,286047000.1,N
1678275775.2,286047002.6,N
1678275795.0,286047002.2,N
1678275795.9,286047002.2,N
1678275815.8,286047002.8,N
1678275835.6,286047001.8,N
1678275855.4,286047004.3,N
1678275875.3,286047002.1,N
1678275895.1,286047003.1,N
1678275915.8,286047003.0,N
1678275935.7,286047005.5,Y
1678275955.5,286047004.4,P
1678275975.4,286047004.1,P
1678275995.2,286047004.1,P
1678276015.0,286047003.4,Y
1678276015.9,286047003.4,P
1678276035.8,286047002.7,P
1678276055.6,286047000.3,N
1678276075.5,286046998.5,N
1678276125.3,286046996.5,E
1678276135.2,286046998.7,N
1678276155.1,286047000.3,P
1678276156.0,286047000.3,N
1678276175.8,286046998.8,N
1678276195.7,286047000.7,N
1678276215.5,286046998.5,N
1678276235.3,286047001.2,N
1678276255.2,286047000.1,N
1678276275.9,286047000.5,N
1678276295.7,286047002.3,N
1678276315.6,286047000.5,N
1678276335.4,286047002.0,N
1678276355.3,286046999.7,N
1678276375.1,286047000.3,N
1678276376.0,286047000.3,N
1678276395.8,286047001.2,N
1678276415.7,286046997.2,N
1678276435.5,286046997.9,N
1678276455.3,286046999.1,N
1678276475.2,286047002.8,N
1678276495.0,286047002.4,N
1678276495.9,286047002.4,N
1678276515.8,286047001.7,N
1678276535.6,286047002.4,N
1678276555.4,286046999.9,N
1678276575.3,286047002.6,N
1678276595.1,286047003.4,N
1678276615.8,286047003.4,N
1678276635.7,286047002.9,N
1678276655.5,286047004.3,N
1678276675.4,286047004.4,N
1678276695.2,286047002.0,N
1678276715.0,286047001.8,N
1678276715.9,286047001.8,N
1678276735.8,286047002.3,N
1678276755.6,286047002.7,N
1678276775.4,286047000.0,N
1678276795.3,286047002.1,N
